Flag for Germany Weather past 2 weeks in Kaiserslautern, Rhineland-Palatinate, Germany

Now
48 °F

Fog.


Feels Like: 47 °F
Forecast: 57 / 72 °F
Wind: 3 mph from East

Location: Ramstein

Current Time: Sep 17, 2014 at 4:13:51 AM

Latest Report: Sep 17, 2014 at 4:01 AM


Visibility: 3 mi

Pressure: 29.94 "Hg

Humidity: 94%

Dew point: 46 °F

Location of KaiserslauternLocation

Historic Weather in Kaiserslautern — Graph

°F

Kaiserslautern temperature yesterday

Maximum temperature yesterday: 75 °F (at 2:59 PM)
Minimum temperature yesterday: 46 °F (at 4:58 AM)
Average temperature yesterday: 58 °F

Past Weeks' High & Low Weather Summary

 TemperatureHumidityPressure
High79 °F (Sep 6, 3:58 PM)100% (Sep 4, 11:58 PM)30.19 "Hg (Sep 4, 11:58 PM)
Low41 °F (Sep 12, 4:58 AM)44% (Sep 16, 2:58 PM)29.87 "Hg (Sep 6, 4:58 PM)
Average59 °F81%30.05 "Hg
* Reported Sep 2 3:58 AM — Sep 17 3:04 AM, Kaiserslautern, Weather by CustomWeather, © 2014

Note: Actual official high and low records may vary slightly from our data, if they occured in-between our weather recording intervals... More about our weather records

Advertising

Kaiserslautern weather history for previous 24 hours

 ConditionsComfort  
Time TempWeatherWind HumidityBarometerVisibility
3:04 AM
Sep 17
48 °FCool.N/A94%29.94 "HgN/A
2:58 AM50 °FFog.No wind100%29.93 "Hg5 mi
1:58 AM48 °FFog.2 mph94%29.94 "Hg1 mi
12:58 AM52 °FClear.2 mph94%29.95 "HgN/A
12:04 AM55 °FFog.1 mph94%29.96 "Hg2 mi
11:58 PM
Sep 16
55 °FFog.No wind94%29.96 "HgN/A
10:58 PM55 °FClear.3 mph94%29.96 "HgN/A
9:58 PM59 °FClear.No wind89%29.96 "HgN/A
8:58 PM59 °FClear.2 mph87%29.96 "HgN/A
7:58 PM62 °FSunny.2 mph83%29.96 "HgN/A
6:58 PM70 °FSunny.6 mph62%29.95 "HgN/A
5:58 PM73 °FSunny.8 mph53%29.95 "HgN/A
4:58 PM75 °FSunny.9 mph47%29.95 "HgN/A
3:58 PM72 °FPassing clouds.5 mph53%29.95 "HgN/A
2:59 PM75 °FLight rain. Passing clouds.1 mph44%29.96 "HgN/A
2:58 PM73 °FPassing clouds.1 mph44%29.96 "HgN/A
1:58 PM72 °FSunny.5 mph54%29.97 "HgN/A
1:01 PM70 °FSunny.2 mph60%29.98 "HgN/A
12:58 PM71 °FLight rain. Sunny.3 mph61%29.98 "HgN/A
11:58 AM64 °FSunny.1 mph94%30.01 "HgN/A
10:58 AM59 °FLight rain. Passing clouds.1 mph99%30.02 "HgN/A
9:59 AM55 °FFog.3 mph100%30.01 "Hg3 mi
9:58 AM55 °FFog.2 mph94%30.02 "Hg2 mi
8:58 AM52 °FCool.No wind96%30.01 "HgN/A
7:58 AM50 °FCool.No wind95%29.99 "HgN/A
7:02 AM50 °FCool.No wind94%29.99 "HgN/A
6:58 AM50 °FFog.No wind94%29.99 "Hg0 mi
6:01 AM48 °FFog.1 mph94%29.99 "Hg1 mi
5:58 AM48 °FFog.No wind94%29.99 "Hg1 mi
5:04 AM46 °FFog.No wind93%29.99 "Hg1 mi
4:58 AM46 °FFog.No wind93%29.99 "Hg1 mi
Weather by CustomWeather, © 2014

See weather overviewHow to use our weather pages